Location: Engle Ridge Observatory
(44.8122°N, 85.4398°W)
Time: 22:01:14
(UTC-04:00)

Daily predictions for brighter satellites

Satellite Brightness Start Highest point End
(mag) Time Altitude Azimuth Time Altitude Azimuth Time Altitude Azimuth
Cosmos 1603 3.7 21:47:24 10° SSW 21:53:01 87° ESE 21:58:40 10° NNE
Atlas Centaur 2 3.9 21:50:27 10° SW 21:56:06 26° S 22:02:30 10° ESE
Envisat 3.1 21:55:37 10° SSE 22:00:38 65° ENE 22:05:40 10° N
Cosmos 1634 Rocket 4.4 21:54:51 10° N 22:00:46 45° ENE 22:06:40 10° SSE
Cosmos 407 Rocket 4.4 21:58:49 10° SSE 22:03:18 29° E 22:07:47 10° NE
Cosmos 2034 Rocket 4.4 21:57:03 10° NNW 22:03:24 70° W 22:09:39 10° S
Cosmos 1943 Rocket 3.4 21:58:51 10° N 22:03:37 28° NE 22:08:23 10° ESE
SL-8 R/B 4.3 22:00:08 10° WNW 22:04:54 57° N 22:09:41 10° E
Nimbus 7 Rocket 4.5 21:59:23 10° NNE 22:05:18 64° ESE 22:11:08 10° S
Cosmos 1953 Rocket 4.5 22:07:00 10° SSE 22:10:54 31° E 22:14:50 10° NNE
Cosmos 1943 3.3 22:07:51 10° S 22:13:22 55° ESE 22:18:55 10° NNE
GRACE-1 4.4 22:13:43 10° N 22:16:34 61° W 22:19:23 10° SSW
GRACE-2 4.5 22:14:10 10° N 22:17:00 60° W 22:19:49 10° SSW
Cosmos 1953 4.3 22:15:44 10° NNE 22:18:04 15° ENE 22:20:22 10° ESE
Lacrosse 5 rocket 4.2 22:15:19 10° WNW 22:18:08 18° NNW 22:21:04 10° NNE
Cosmos 1939 Rocket 3.3 22:15:04 10° S 22:19:11 65° W 22:23:19 10° NNW
Cosmos 1346 Rocket 3.0 22:27:17 10° S 22:31:03 49° E 22:34:52 10° NNE
Cosmos 1992 Rocket 4.4 22:27:20 10° NNW 22:32:30 62° WSW 22:37:37 10° S
Cosmos 1842 4.5 22:35:17 16° SE 22:37:23 26° E 22:40:40 10° NNE
SeaSat 1 2.5 22:35:39 14° SSE 22:39:58 83° WSW 22:44:57 10° NNW
ARGOS 3.4 22:36:49 15° SSE 22:41:20 60° ENE 22:46:41 10° N
USA 81 4.1 22:36:51 10° N 22:42:11 87° W 22:47:28 10° S
COSMOS 2455 3.5 22:37:48 10° SW 22:43:43 59° NW 22:49:41 10° NNE
Cosmos 1758 Rocket 3.7 22:40:29 12° S 22:44:26 57° E 22:48:43 10° NNE
ISS -2.1 22:47:14 10° W 22:50:23 44° NNW 22:53:32 10° NE
MetOp-B 4.4 22:45:19 11° S 22:50:30 70° WSW 22:55:53 10° NNW
CZ-4B R/B 3.5 22:48:21 10° NNE 22:53:30 85° ESE 22:58:44 10° SSW
Cosmos 2369 Rocket 2.7 22:48:57 10° NW 22:54:28 54° WSW 22:59:14 14° S
Cosmos 1190 Rocket 4.3 22:54:54 10° SSW 23:00:12 73° WNW 23:05:33 10° NNE
Cosmos 1825 Rocket 4.2 22:56:06 10° SSW 23:00:29 57° WNW 23:04:52 10° N
Cosmos 1766 3.2 22:56:30 10° N 23:00:32 81° E 23:03:02 22° SSE
Landsat 7 4.1 22:58:25 21° SE 23:01:25 55° ENE 23:06:04 10° N
CZ-4 R/B 3.9 22:59:42 10° NNE 23:04:44 77° ESE 23:09:21 12° S
Cosmos 1758 3.9 23:02:22 10° N 23:06:21 45° ENE 23:08:15 26° SE
PSLV R/B 3.9 23:03:52 10° W 23:07:14 41° S 23:08:17 32° SE
H-2A R/B 2.4 23:04:51 22° SE 23:07:50 50° ENE 23:12:47 10° N
DELTA 2 DEB (DPAF) 4.1 23:05:25 23° SSE 23:08:12 77° ENE 23:12:42 10° N
YAOGAN 6 3.5 23:06:29 16° S 23:09:13 47° W 23:12:52 10° NNW
NOAA 11 4.2 23:05:44 19° SSE 23:09:44 87° WSW 23:15:11 10° NNW
ATLAS 3B R/B 3.1 23:02:18 10° SW 23:10:02 82° NW 23:17:35 10° NE
Cosmos 1140 Rocket 3.9 23:07:18 21° SSE 23:10:25 43° ESE 23:15:22 10° NNE
Cosmos 1842 Rocket 4.4 23:09:25 10° N 23:13:30 36° ENE 23:15:21 25° ESE
Spot 4 4.5 23:11:57 23° SE 23:14:27 43° ENE 23:18:59 10° N
IGS 5A 4.0 23:12:41 26° SE 23:14:34 44° ENE 23:18:33 10° N
SPOT 5 4.4 23:12:24 10° SSW 23:16:02 25° W 23:19:40 10° NW
SPOT 1/Viking Rocket 4.1 23:12:56 16° S 23:17:01 55° W 23:22:05 10° NNW
Terra 2.1 23:14:42 26° SE 23:17:14 56° ENE 23:21:54 10° N
Cosmos 676 Rocket 4.1 23:12:08 10° SSW 23:17:29 84° WNW 23:22:51 10° NNE
Cosmos 1340 4.5 23:17:42 17° E 23:17:52 17° E 23:20:23 10° NE
Lacrosse 4 Rocket 2.5 23:17:28 10° SW 23:21:22 45° NW 23:25:21 10° NNE
Cosmos 2084 3.4 23:18:35 10° NW 23:22:43 77° SW 23:24:37 32° SSE
Cosmos 1544 4.2 23:19:34 10° NNE 23:22:57 31° ENE 23:23:55 27° ESE
SAR-Lupe-2 3.5 23:23:38 38° SSE 23:24:53 71° ENE 23:28:29 10° N
USA 234 3.3 23:21:50 23° SE 23:26:10 73° SW 23:32:45 10° NW
Cosmos 1470 4.0 23:23:36 10° NNE 23:26:58 27° ENE 23:27:56 24° E
Cosmos 1805 3.2 23:24:36 10° N 23:28:34 70° E 23:29:59 37° SSE
SL-24 R/B 4.5 23:24:07 10° N 23:29:08 87° E 23:32:38 22° S
Lacrosse 5 4.1 23:25:21 10° NW 23:29:22 23° NNE 23:33:23 10° ENE
BREEZE-M DEB (TANK) 2.8 23:27:33 10° W 23:29:59 43° NNW 23:32:00 10° ENE
Cosmos 1092 Rocket 4.5 23:27:08 26° SE 23:30:20 45° E 23:36:15 10° NNE
Cosmos 614 Rocket 4.4 23:30:46 30° SSE 23:32:44 42° ESE 23:37:38 10° NNE
COSMOS 2406 3.2 23:33:42 19° S 23:37:50 69° ESE 23:43:33 10° NNE
Nadezhda 4 Rocket 4.0 23:34:52 25° S 23:38:46 70° E 23:45:04 10° NNE
CZ-4C R/B 4.1 23:38:41 25° SSW 23:40:44 46° W 23:44:36 10° NNW
DMSP B5D2-2 4.0 23:37:24 10° NNE 23:42:42 70° ESE 23:45:23 29° S
Atlas Centaur 2 4.0 23:38:51 10° WSW 23:44:46 24° S 23:46:02 23° S
Cosmos 2221 3.8 23:42:52 10° NNE 23:46:36 28° ENE 23:47:39 25° E
SL-27 R/B 3.1 23:45:17 23° SW 23:47:06 49° WNW 23:50:23 10° N
Cosmos 1943 Rocket 2.7 23:42:15 10° NW 23:47:36 50° WSW 23:50:26 26° S
SL-8 R/B 3.6 23:42:49 10° WNW 23:47:40 77° SSW 23:49:39 36° SE
Cosmos-2242 3.8 23:45:11 10° NNW 23:49:26 47° W 23:51:35 26° SSW
COSMOS 2487 2.7 23:54:06 50° ESE 23:54:06 50° ESE 23:57:36 10° NNE
Cosmos 1953 3.1 23:50:59 10° NNW 23:54:49 45° W 23:56:18 30° SW
